Location: Chuathbaluk
(61.5726°N, 159.2454°W)
Time: 23:20:52
(UTC+00:00)

Tiros 1 despin weight - Visible Passes

Search period start: 25 November 2020 00:00
Search period end: 05 December 2020 00:00
Orbit: 593 x 642 km, 48.2° (Epoch: 25 November)

Date Brightness Start Highest point End Pass type
(mag) Time Alt. Az. Time Alt. Az. Time Alt. Az.
25 Nov ? 03:57:55 10° SW 04:00:27 15° SSW 04:02:58 10° SSE visible
26 Nov ? 02:33:17 10° SW 02:36:06 16° S 02:38:54 10° SE visible
26 Nov ? 04:14:27 10° SW 04:16:22 12° SSW 04:18:17 10° S visible
27 Nov ? 02:49:19 10° SW 02:52:03 15° S 02:54:47 10° SSE visible
28 Nov ? 03:05:37 10° SW 03:07:59 14° SSW 03:10:21 10° SSE visible
29 Nov ? 03:22:23 10° SW 03:23:52 11° SSW 03:25:21 10° S visible
02 Dec ? 02:30:47 10° SSW 02:31:21 10° SSW 02:31:56 10° SSW visible
